Location: ???? ?????
(37.9132°N, 22.9869°E)
Time: 17:19:59
(UTC+00:00)

Cosmos 1238 Rocket - Pass Details

Date: 04 August 2024
Orbit: 364 x 855 km, 82.9° (Epoch: 18 September)

Event Time Altitude Azimuth Distance (km) Brightness Sun altitude
Rises 19:56:41 0° 347° (NNW) 3,100 7.6 -23.9°
Reaches altitude 10° 19:58:55 10° 344° (NNW) 2,248 6.8 -24.2°
Maximum altitude 20:03:55 56° 267° (W) 950 4.1 -24.8°
Enters shadow 20:05:47 38° 211° (SSW) 1,239 4.4 -25.0°
